Regional Weather Roundup
Issued by NWS Mobile, AL

Home | Current Version | Previous Version | Text Only | Print | Product List | Glossary On
Versions: 1 2 3 4 5 6 7 8 9 10 11 12 13 14 15 16 17 18 19 20 21 22 23 24 25 26 27 28 29 30 31 32 33 34 35 36 37 38 39 40 41 42 43 44 45 46 47 48 49 50
000
ASUS44 KMOB 300916
RWRMOB
REGIONAL WEATHER ROUNDUP
NATIONAL WEATHER SERVICE MOBILE AL
400 AM CDT TUE JUN 30 2015

ALZ061>064-301000-
COASTAL ALABAMA


CITY           SKY/WX    TMP DP  RH WIND       PRES   REMARKS
MOBILE REG APT PTCLDY    77  76  96 SW7       30.04S
BROOKLEY FIELD PTCLDY    79  76  90 VRB5      30.04F
GULF SHORES    PTSUNNY   80  77  90 SW8       30.04S

$$

ALZ051>060-301000-
INTERIOR SOUTHWEST AND SOUTH CENTRAL ALABAMA


CITY           SKY/WX    TMP DP  RH WIND       PRES   REMARKS
ANDALUSIA/OPP  CLEAR     76  70  82 CALM      30.03S
EVERGREEN      PTCLDY    71  69  93 CALM      30.03S
FLORALA        SUNNY     73  71  93 S3        30.05S
GREENVILLE     FAIR      73  69  87 SW5       30.01F

$$

FLZ001>006-301000-
WESTERN FLORIDA PANHANDLE


CITY           SKY/WX    TMP DP  RH WIND       PRES   REMARKS
CRESTVIEW      CLEAR     74  72  93 CALM      30.04F
DESTIN         PTCLDY    82  77  84 W6        30.03S
DUKE FIELD     FAIR      79  75  88 SW7       30.02F
MARY ESTHER    MOCLDY    82  76  82 SW10      30.02S
MILTON         MOSUNNY   80  75  84 VRB3      30.03F
PENSACOLA      MOCLDY    80  76  87 W10       30.03S
NAS PENSACOLA  MOCLDY    80  75  84 SW7       30.03S
VALPARAISO     PTCLDY    81  76  83 SW5       30.03S

$$

...MARINE OBSERVATIONS...

STATION/POSITION TIME  SKY/WX   TEMP    WIND        PRES    VSBY
                                AIR SEA DIR/SP/G
                 (UTC)          (F)     (DEG/KT/KT) (MB)    (MI)
PASCAGOULA       0800            81     220/  9/ 15 1017.0S
GRAND BAY        0745            81     240/ 12     1018.0
PETIT BOIS ISL   0800            82     240/ 14/ 17 1017.6S
E DAUPHIN ISLAND 0900            81     240/ 10/ 13 1016.9S
MIDDLE BAY LIGHT 0800            81     230/ 18     1016.3F
USCG MOBILE BAY  0800            79 84  230/  4/  7 1016.0R
STATE DOCKS      0800            80 86              1016.7S
MEAHER PARK      0900            82     220/ 12     1016.3S
FORT MORGAN      0800            82     260/ 16/ 18 1016.8S
12 S ORANGE BCH  0850            83 84  240/ 16/ 17 1016.4S
WVE H/P(F/S)=  3/ 4

PENSACOLA BAY    0800            82 85  240/ 12/ 14 1017.3R
64 S DAUPHIN ISL 0850            83 83  250/ 14/ 16 1018.5R
WVE H/P(F/S)=  2/ 4

67 S FORT MORGAN 0830            82     220/  6     1018.3S
115 SE PENSACOLA 0850            83 83  240/ 14/ 16 1018.2F
WVE H/P(F/S)=  3/ 5

MID GULF/42001   0850            84 85  150/ 12/ 16 1018.3R
WVE H/P(F/S)=  1/ 3

EAST GULF/42003  0850            84 85  170/  8/ 10 1018.4R
WVE H/P(F/S)=  2/ 8


$$

...NEARBY LOCATIONS

CITY           SKY/WX    TMP DP  RH WIND       PRES   REMARKS
GULFPORT       PTCLDY    79  75  87 CALM      30.02S
BILOXI         PTCLDY    80  77  89 W8        30.02S
PASCAGOULA     PTCLDY    80  76  87 SW5       30.03S
HATTIESBURG    MOCLDY    76  72  87 SE5       30.00F
LAUREL         MOCLDY    72  66  83 CALM      30.01S
MERIDIAN       CLOUDY    74  73  97 S10       30.00S
MERIDIAN NAS   CLOUDY    75  72  90 CALM      29.99S
MONTGOMERY     MOCLDY    74  70  87 CALM      30.01S
MAXWELL AFB    MOCLDY    73  70  90 SW1       30.00S
TROY           CLEAR     71  69  93 SW3       30.03S
FORT RUCKER    CLEAR     71  70  96 CALM      30.02S
DALEVILLE      CLEAR     73  72  96 SW5       30.03S
DOTHAN         CLEAR     74  72  93 SW6       30.07S

$$

...OTHER SURROUNDING LOCATIONS...

CITY           SKY/WX    TMP DP  RH WIND       PRES   REMARKS
BIRMINGHAM     PTCLDY    76  72  87 SW6       30.00F
TUSCALOOSA     PTCLDY    74  71  91 S3        29.98S
COLUMBUS GA    PTCLDY    73  69  87 SW3       30.01S
PANAMA CITY    NOT AVBL
TALLAHASSEE    CLEAR     75  73  93 CALM      30.05R
BATON ROUGE    PTCLDY    72  69  90 SW7       30.00F
NEW ORLEANS    CLOUDY    79  70  74 SW9       30.02F
SLIDELL        MOCLDY    78  70  76 S6        30.00F
JACKSON        CLOUDY    73  65  75 SW5       30.01R
MCCOMB         CLOUDY    72  65  78 W7        30.00R

$$

...SURROUNDING MARINE OBSERVATIONS...

STATION/POSITION TIME  SKY/WX   TEMP    WIND        PRES    VSBY
                                AIR SEA DIR/SP/G
                 (UTC)          (F)     (DEG/KT/KT) (MB)    (MI)
WAVELAND         0800            79 85  250/  4/  7 1016.8S
PASCAGOULA RGN A 0800            82     240/ 14/ 18 1016.7R
PASCAGOULA PORT  0800               83                N/A
GRAND ISLE       0800            82 85  240/  5/  8 1018.0F
SOUTHWEST PASS   0900            83     250/ 10/ 10 1018.5R
PILOT STATION E  0800            83 83  250/ 15/ 16 1018.5F
SHELL BEACH      0800            80 83  230/ 10/ 14 1016.5F
PANAMA CITY      0800            82 85  240/ 14/ 16 1016.9R
APALACHICOLA     0800            80 84  250/  3/  7 1017.8R
TYNDALL TOWER C  0900            81     250/ 14/ 16 1017.9F
S APLCHCLA/42036 0850            83 85  230/ 14/ 16 1018.1S
WVE H/P(F/S)=  3/ 5


$$



USA.gov is the U.S. government's official web portal to all federal, state and local government web resources and services.